Regional Weather Roundup
Issued by NWS

Home | Current Version | Previous Version | Graphics & Text | Print | Product List | Glossary On
Versions: 1 2 3 4 5 6 7 8 9 10 11 12 13 14 15 16 17 18 19 20 21 22 23 24 25 26 27 28 29 30 31 32 33 34 35 36 37 38 39 40 41 42 43 44 45 46 47 48 49 50
000
ASUS43 KMKX 232121
RWRWI

WISCONSIN REGIONAL WEATHER ROUNDUP
NATIONAL WEATHER SERVICE MILWAUKEE/SULLIVAN WI
400 PM CDT TUE SEP 23 2014

NOTE: "FAIR" INDICATES FEW OR NO CLOUDS BELOW 12,000 FEET WITH NO
SIGNIFICANT WEATHER AND/OR OBSTRUCTIONS TO VISIBILITY.

WIZ001-002-006>008-014>016-023>028-232200-
NORTHWEST WISCONSIN

CITY           SKY/WX    TMP DP  RH WIND       PRES   REMARKS
SUPERIOR ARPT  SUNNY     74  53  46 S8G17     30.15F
ASHLAND        SUNNY     75  51  43 SW7       30.18F
HAYWARD        SUNNY     72  49  44 S16       30.20F
SIREN          MOSUNNY   74  49  41 S12       30.17F
CUMBERLAND     CLEAR     72  46  40 S13       30.19F
RICE LAKE      SUNNY     72  48  42 S12       30.20F
CHETEK         CLEAR     73  51  47 S7        30.20F
LADYSMITH      SUNNY     73  51  45 S9        30.23F
EAU CLAIRE     MOSUNNY   73  50  44 S12       30.20F
MENOMONIE      PTCLDY    73  51  45 S12       30.19F
NEW RICHMOND   SUNNY     73  48  41 S10       30.18F
OSCEOLA        SUNNY     72  51  48 S8        30.19F
$$

WIZ003>005-009-010-017-018-232200-
NORTH CENTRAL WISCONSIN

CITY           SKY/WX    TMP DP  RH WIND       PRES   REMARKS
MANITOWISH WTR CLEAR     73  49  43 S8        30.22F
ARBOR VITAE    SUNNY     73  49  41 SW7       30.23F
WOODRUFF       SUNNY     73  49  41 SW7       30.23F
RHINELANDER    SUNNY     71  48  43 S7        30.25F
EAGLE RIVER    SUNNY     73  45  36 SW8       30.23F
LAND O LAKES   SUNNY     74  47  39 SW7       30.24F
PHILLIPS       MOSUNNY   71  49  45 SW7       30.21F
TOMAHAWK       SUNNY     72  49  43 CALM      30.24F
MEDFORD        SUNNY     70  50  48 S9        30.24F
MERRILL        SUNNY     73  50  44 SW6       30.23F
$$

WIZ029-030-035-036-043>047-232200-
CENTRAL WISCONSIN

CITY           SKY/WX    TMP DP  RH WIND       PRES   REMARKS
WAUSAU         SUNNY     72  49  44 SW6       30.23F
MOSINEE        SUNNY     72  52  49 S8        30.25F
MARSHFIELD     SUNNY     73  51  46 S8        30.23F
STEVENS POINT  SUNNY     71  49  45 SW7       30.25F
WAUPACA        SUNNY     76  51  40 SE3       30.25F
WAUTOMA        SUNNY     75  50  41 VRB3      30.25F
WISC RAPIDS    SUNNY     73  49  42 SW10      30.25F
CAMP DOUGLAS   MOSUNNY   72  52  49 S7        30.24F
$$

WIZ011>013-019>022-031-037>040-048>050-232200-
NORTHEAST WISCONSIN

CITY           SKY/WX    TMP DP  RH WIND       PRES   REMARKS
ANTIGO         SUNNY     71  50  47 SW6       30.25F
SHAWANO        CLEAR     76  51  41 S5        30.25S
OCONTO         CLEAR     71  54  54 SE8       30.23F
STURGEON BAY   SUNNY     70  55  60 S9        30.26F
GREEN BAY      SUNNY     73  53  49 S9        30.25F
MANITOWOC      SUNNY     68  53  58 S8        30.27F
APPLETON       SUNNY     73  48  40 SW7       30.26F
CLINTONVILLE   SUNNY     73  48  40 SW7       30.24S
OSHKOSH        SUNNY     74  51  44 W7        30.25F
$$

WIZ032>034-041-042-053>061-232200-
SOUTHWEST WISCONSIN

CITY           SKY/WX    TMP DP  RH WIND       PRES   REMARKS
LA CROSSE      MOSUNNY   74  51  44 S10       30.21F
SPARTA         MOSUNNY   73  49  42 S9        30.24F
VIROQUA        PTCLDY    71  48  45 S7        30.24F
BOSCOBEL       SUNNY     75  48  38 VRB5      30.24F
PRAIRIE DU CHI SUNNY     73  43  34 SE7       30.23F
PLATTEVILLE    SUNNY     73  47  40 S6        30.26F
$$

WIZ056-057-062-063-064-067-068-232200-
SOUTH CENTRAL WISCONSIN

CITY           SKY/WX    TMP DP  RH WIND       PRES   REMARKS
REEDSBURG      CLEAR     72  52  50 S8        30.25F
BARABOO/DELLS  SUNNY     74  47  38 S10       30.25F
LONE ROCK      MOSUNNY   77  48  35 SE6       30.25F
MINERAL POINT  MOSUNNY   73  43  33 S6        30.26F
MADISON        MOSUNNY   73  47  39 S9        30.26F
MIDDLETON      CLEAR     75  43  31 S7        30.26F
WATERTOWN      SUNNY     73  51  44 SW6       30.26F
MONROE         SUNNY     72  46  40 S5        30.26F
JANESVILLE     SUNNY     73  48  40 SE9       30.27F
$$

WIZ051-052-058>065-066-070>072-232200-
SOUTHEAST WISCONSIN

CITY           SKY/WX    TMP DP  RH WIND       PRES   REMARKS
MILWAUKEE      MOSUNNY   70  51  51 SE12      30.27F
WAUKESHA       SUNNY     72  46  40 SW7       30.28F
MILWAUKEE/TIMM SUNNY     73  45  35 CALM      30.27F
RACINE         SUNNY     70  50  49 S9        30.29F
BURLINGTON     SUNNY     72  46  38 S3        30.27F
KENOSHA        SUNNY     73  51  46 VRB6      30.28F
FOND DU LAC    SUNNY     73  51  46 SW3       30.26F
SHEBOYGAN      SUNNY     74  51  44 S7        30.26F
WEST BEND      SUNNY     72  46  40 CALM      30.26F
JUNEAU         SUNNY     72  49  44 S3        30.27F
$$

LSZ147-162-232200-
LAKE SUPERIOR

STATION/POSITION TIME  TEMP    WIND        PRES    WAVE
                       AIR SEA DIR/SP/G            HT/PER
                 (UTC) (F)     (DEG/KT/KT) (MB)    (FT/S)
W MID LAKE BUOY  2050   57 51  290/  2/  4 1022.3F   1
DEVILS ISLAND    2100   62      70/  3/  3 1021.9F
PORT WING        2000   64      30/  5/  7 1021.7F
SAXON HARBOR     2000   67      70/  6/  7 1022.0F
$$

LMZ867-665-643>646-232200-
LAKE MICHIGAN

STATION/POSITION TIME  TEMP    WIND        PRES    WAVE
                       AIR SEA DIR/SP/G            HT/PER
                 (UTC) (F)     (DEG/KT/KT) (MB)    (FT/S)
CHAMBERS ISLAND  2000   69     180/  4/ 11 1024.4F
S GREEN BAY BUOY 2100   65                 1025.1F
N MID LAKE BUOY  2050   59 58  200/ 10/ 12 1024.6F   1/ 3
NORTHPORT PIER   2000   69      60/  1/  2 1024.4S
SISTER BAY       2027          220/  9/ 12   N/A
KEWAUNEE LAKESHO 2000          170/  9/ 10   N/A
SHEBOYGAN LAKESH 2100   61 53  180/ 16/ 16 1025.1F
PORT WASHINGTON  2040   66     190/  4/  6 1025.7F
ATWATER BUOY     2100   61     150/ 10/ 12 1025.9F
S MID LAKE BUOY  2050   62 61  180/  8/ 10 1026.3F   1/ 3
KENOSHA   LAKESH 2100   62     170/ 11/ 12 1025.1F
$$

TC  - TEMPERATURE IN CELSIUS
VSB - VISIBILITY IN STATUTE MILES
WCI - WIND CHILL INDEX
HX  - HEAT INDEX



USA.gov is the U.S. government's official web portal to all federal, state and local government web resources and services.